Regional Weather Roundup
Issued by NWS Little Rock, AR

Home | Current Version | Previous Version | Graphics & Text | Print | Product List | Glossary On
Versions: 1 2 3 4 5 6 7 8 9 10 11 12 13 14 15 16 17 18 19 20 21 22 23 24 25 26 27 28 29 30 31 32 33 34 35 36 37 38 39 40 41 42 43 44 45 46 47 48 49
000
ASUS44 KLZK 271005
RWRLZK

WEATHER ROUNDUP FOR ARKANSAS
NATIONAL WEATHER SERVICE LITTLE ROCK AR
400 AM CST FRI FEB 27 2015

NOTE: "FAIR" INDICATES FEW OR NO CLOUDS BELOW 12,000 FEET WITH NO
SIGNIFICANT WEATHER AND/OR OBSTRUCTIONS TO VISIBILITY.

ARZ001-003-010-029-271100-
NORTHWEST ARKANSAS

CITY           SKY/WX    TMP DP  RH WIND       PRES   REMARKS
FAYETTEVILLE   PTCLDY    13   4  67 NE5       30.49R WCI   5
FORT SMITH     CLEAR     21   7  54 N8        30.53R WCI  11
HARRISON       CLEAR     10   3  73 N5        30.49R WCI   2
BENTONVILLE    CLEAR     12   3  67 NE6       30.50R WCI   3
ROGERS         CLEAR     11   4  73 NE7       30.50R WCI   0
SILOAM SPGS    CLEAR     14   1  57 NE6       30.50S WCI   5
HIGHFILL       CLEAR     13   5  70 NE8       30.49R WCI   2
$$

ARZ004-005-016-271100-
NORTH CENTRAL ARKANSAS

CITY           SKY/WX    TMP DP  RH WIND       PRES   REMARKS
BATESVILLE     CLEAR     18   7  62 N6        30.52S WCI   9
FLIPPIN        CLEAR     14   1  57 N7        30.52R WCI   4
MTN HOME       CLEAR     12   3  67 N5        30.51R WCI   4
$$

ARZ040-041-271100-
WEST CENTRAL ARKANSAS

CITY           SKY/WX    TMP DP  RH WIND       PRES   REMARKS
MENA           PTCLDY    23  12  63 N7        30.44S WCI  15
MOUNT IDA      CLEAR     23   9  55 CALM      30.44S
$$

ARZ009-017-025-026-028-271100-
NORTHEAST ARKANSAS

CITY           SKY/WX    TMP DP  RH WIND       PRES   REMARKS
CORNING        FAIR      16   5  62 N16       30.57R WCI   0
JONESBORO      CLEAR     19   7  59 N7        30.53R WCI  10
NEWPORT        CLEAR     21  13  71 N17       30.54R WCI   7
WALNUT RIDGE   CLEAR     18   3  53 N17       30.55R WCI   2
BLYTHEVILLE    CLEAR     20  13  74 N16       30.53R WCI   6
$$

ARZ022-023-033-042-044-271100-
CENTRAL ARKANSAS

CITY           SKY/WX    TMP DP  RH WIND       PRES   REMARKS
LITTLE ROCK    PTCLDY    22  10  60 N8        30.53R WCI  12
N LITTLE ROCK    N/A     20  14  77 N9        30.53R WCI   9
JACKSONVILLE   PTCLDY    21  10  61 N7        30.51R WCI  12
HOT SPRINGS    CLEAR     23  12  62 NE9       30.49R WCI  13
RUSSELLVILLE   CLEAR     21   6  52 N8        30.51R WCI  11
CLINTON        FAIR      18   7  62 N3        30.54R
$$

ARZ036-271100-
EAST ARKANSAS

CITY           SKY/WX    TMP DP  RH WIND       PRES   REMARKS
WEST MEMPHIS   PTCLDY    22  14  71 NE15      30.50R WCI   9
$$

ARZ050-053-066-070-073-271100-
SOUTHWEST ARKANSAS

CITY           SKY/WX    TMP DP  RH WIND       PRES   REMARKS
ARKADELPHIA    FAIR      25  16  68 NE7       30.51R WCI  17
CAMDEN         CLEAR     25  12  58 MISG      30.49F
TEXARKANA      CLEAR     28  16  60 NE9       30.45S WCI  19
EL DORADO      PTCLDY    26  17  68 N9        30.47R WCI  17
DE QUEEN       CLEAR     24  13  62 E5        30.46R WCI  18
$$

ARZ056-057-069-271100-
SOUTHEAST ARKANSAS

CITY           SKY/WX    TMP DP  RH WIND       PRES   REMARKS
PINE BLUFF     PTCLDY    23  15  71 N9        30.51R WCI  13
STUTTGART      PTCLDY    25  16  68 N13       30.50R WCI  13
MONTICELLO     CLEAR     26  17  68 N8        30.47R WCI  18

$$




USA.gov is the U.S. government's official web portal to all federal, state and local government web resources and services.